When you browse on this site, cookies collect data to enhance your experience and personalize the content and advertising you see.
Visit our Privacy Policy to learn more. By continuing to use the site, you agree to this use of cookies and data.
  • en France
  • Liste des pays
  • À 7 jours
  • Température de l'eau
  • Carte météo
  • Widgets météo
  • user-avatar
    Se connecter

    Météo par heure à Potsdam

    Ce jour, 16 Septembre, Lundi

    Heure Température Précipitation Vent Pression Humidité
    00:00 +16°C° 0 mm 3 m/s 760 mmHg 78%
    01:00 +14°C° 0 mm 3 m/s 760 mmHg 75%
    02:00 +14°C° 0 mm 3 m/s 760 mmHg 76%
    03:00 +13°C° 0 mm 3 m/s 760 mmHg 77%
    04:00 +14°C° 0 mm 2 m/s 760 mmHg 78%
    05:00 +13°C° 0.2 mm 3 m/s 760 mmHg 80%
    06:00 +13°C° 0.2 mm 3 m/s 760 mmHg 81%
    07:00 +13°C° 0 mm 2 m/s 760 mmHg 83%
    08:00 +13°C° 0.2 mm 3 m/s 760 mmHg 83%
    09:00 +13°C° 0.2 mm 3 m/s 760 mmHg 83%
    10:00 +13°C° 0.2 mm 4 m/s 760 mmHg 83%
    11:00 +14°C° 0.1 mm 4 m/s 760 mmHg 77%
    12:00 +15°C° 0.1 mm 4 m/s 760 mmHg 72%
    13:00 +17°C° 0.1 mm 4 m/s 760 mmHg 66%
    14:00 +15°C° 0 mm 4 m/s 759 mmHg 67%
    15:00 +16°C° 0 mm 3 m/s 759 mmHg 69%
    16:00 +14°C° 0 mm 3 m/s 758 mmHg 70%
    17:00 +14°C° 0 mm 3 m/s 758 mmHg 74%
    18:00 +13°C° 0 mm 3 m/s 758 mmHg 77%
    19:00 +13°C° 0 mm 2 m/s 758 mmHg 81%
    20:00 +13°C° 0 mm 2 m/s 758 mmHg 84%
    21:00 +12°C° 0 mm 3 m/s 758 mmHg 86%
    22:00 +11°C° 0 mm 3 m/s 758 mmHg 88%
    23:00 +11°C° 0 mm 3 m/s 758 mmHg 88%

    Demain, 17 Septembre, Mardi

    Heure Température Précipitation Vent Pression Humidité
    00:00 +11°C° 0 mm 3 m/s 759 mmHg 87%
    01:00 +10°C° 0 mm 3 m/s 759 mmHg 87%
    02:00 +10°C° 0 mm 3 m/s 758 mmHg 88%
    03:00 +10°C° 0 mm 4 m/s 758 mmHg 88%
    04:00 +10°C° 0 mm 4 m/s 758 mmHg 89%
    05:00 +10°C° 0 mm 4 m/s 757 mmHg 86%
    06:00 +10°C° 0 mm 4 m/s 757 mmHg 83%
    07:00 +10°C° 0 mm 5 m/s 757 mmHg 80%
    08:00 +11°C° 0 mm 6 m/s 757 mmHg 73%
    09:00 +13°C° 0 mm 6 m/s 757 mmHg 67%
    10:00 +14°C° 0 mm 7 m/s 756 mmHg 60%
    11:00 +14°C° 0.5 mm 7 m/s 756 mmHg 65%
    12:00 +12°C° 0.5 mm 7 m/s 756 mmHg 70%
    13:00 +12°C° 0.5 mm 7 m/s 755 mmHg 75%
    14:00 +12°C° 0.2 mm 8 m/s 755 mmHg 69%
    15:00 +12°C° 0.2 mm 8 m/s 756 mmHg 63%
    16:00 +12°C° 0.2 mm 9 m/s 756 mmHg 57%
    17:00 +11°C° 0 mm 8 m/s 756 mmHg 59%
    18:00 +10°C° 0 mm 7 m/s 756 mmHg 61%
    19:00 +9°C° 0 mm 6 m/s 757 mmHg 63%
    20:00 +9°C° 0 mm 6 m/s 757 mmHg 65%
    21:00 +8°C° 0 mm 6 m/s 757 mmHg 66%
    22:00 +8°C° 0 mm 6 m/s 758 mmHg 67%
    23:00 +8°C° 0 mm 6 m/s 758 mmHg 70%

    Après-demain, 18 Septembre, Mercredi

    Heure Température Précipitation Vent Pression Humidité
    00:00 +8°C° 0 mm 5 m/s 759 mmHg 72%
    01:00 +7°C° 0 mm 5 m/s 759 mmHg 74%
    02:00 +7°C° 0 mm 5 m/s 759 mmHg 76%
    03:00 +7°C° 0 mm 5 m/s 760 mmHg 78%
    04:00 +7°C° 0 mm 5 m/s 760 mmHg 80%
    05:00 +7°C° 0 mm 5 m/s 761 mmHg 80%
    06:00 +7°C° 0 mm 5 m/s 761 mmHg 80%
    07:00 +7°C° 0 mm 5 m/s 761 mmHg 80%
    08:00 +9°C° 0 mm 5 m/s 762 mmHg 72%
    09:00 +10°C° 0 mm 5 m/s 762 mmHg 64%
    10:00 +13°C° 0 mm 6 m/s 763 mmHg 56%
    11:00 +13°C° 0 mm 6 m/s 763 mmHg 56%
    12:00 +11°C° 0 mm 6 m/s 763 mmHg 56%
    13:00 +11°C° 0 mm 6 m/s 763 mmHg 55%
    14:00 +12°C° 0 mm 5 m/s 763 mmHg 56%
    15:00 +12°C° 0 mm 5 m/s 763 mmHg 57%
    16:00 +12°C° 0 mm 5 m/s 763 mmHg 58%
    17:00 +12°C° 0 mm 4 m/s 763 mmHg 59%
    18:00 +11°C° 0 mm 4 m/s 762 mmHg 61%
    19:00 +11°C° 0 mm 3 m/s 762 mmHg 63%
    20:00 +10°C° 0 mm 3 m/s 763 mmHg 66%
    21:00 +8°C° 0 mm 4 m/s 763 mmHg 69%
    22:00 +7°C° 0 mm 4 m/s 763 mmHg 71%
    23:00 +7°C° 0 mm 4 m/s 763 mmHg 74%

    19 Septembre, Jeudi

    Heure Température Précipitation Vent Pression Humidité
    00:00 +7°C° 0 mm 4 m/s 763 mmHg 76%
    01:00 +6°C° 0 mm 4 m/s 763 mmHg 79%
    02:00 +6°C° 0 mm 4 m/s 764 mmHg 75%
    03:00 +7°C° 0 mm 4 m/s 764 mmHg 72%
    04:00 +7°C° 0 mm 4 m/s 764 mmHg 68%
    05:00 +7°C° 0 mm 4 m/s 764 mmHg 69%
    06:00 +7°C° 0 mm 4 m/s 764 mmHg 69%
    07:00 +7°C° 0 mm 4 m/s 764 mmHg 70%
    08:00 +10°C° 0 mm 4 m/s 765 mmHg 68%
    09:00 +11°C° 0 mm 4 m/s 765 mmHg 66%
    10:00 +12°C° 0 mm 4 m/s 766 mmHg 63%
    11:00 +13°C° 0 mm 3 m/s 766 mmHg 58%
    12:00 +14°C° 0 mm 3 m/s 766 mmHg 53%
    13:00 +16°C° 0 mm 3 m/s 766 mmHg 48%
    14:00 +16°C° 0 mm 3 m/s 766 mmHg 49%
    15:00 +16°C° 0 mm 3 m/s 766 mmHg 49%
    16:00 +16°C° 0 mm 3 m/s 766 mmHg 50%
    17:00 +14°C° 0 mm 3 m/s 766 mmHg 57%
    18:00 +12°C° 0 mm 3 m/s 766 mmHg 64%
    19:00 +12°C° 0 mm 2 m/s 766 mmHg 72%
    20:00 +10°C° 0 mm 2 m/s 767 mmHg 74%
    21:00 +9°C° 0 mm 2 m/s 767 mmHg 77%
    22:00 +9°C° 0 mm 2 m/s 767 mmHg 80%
    23:00 +8°C° 0 mm 2 m/s 767 mmHg 82%

    20 Septembre, Vendredi

    Heure Température Précipitation Vent Pression Humidité
    00:00 +8°C° 0 mm 2 m/s 767 mmHg 84%
    01:00 +8°C° 0 mm 2 m/s 767 mmHg 85%
    02:00 +7°C° 0 mm 2 m/s 767 mmHg 87%
    03:00 +7°C° 0 mm 2 m/s 767 mmHg 89%
    04:00 +6°C° 0 mm 2 m/s 767 mmHg 91%
    05:00 +6°C° 0 mm 2 m/s 767 mmHg 90%
    06:00 +7°C° 0 mm 2 m/s 767 mmHg 89%
    07:00 +7°C° 0 mm 2 m/s 767 mmHg 88%
    08:00 +9°C° 0 mm 2 m/s 768 mmHg 81%
    09:00 +12°C° 0 mm 2 m/s 768 mmHg 74%
    10:00 +14°C° 0 mm 2 m/s 768 mmHg 66%
    11:00 +14°C° 0 mm 2 m/s 768 mmHg 63%
    12:00 +15°C° 0 mm 2 m/s 768 mmHg 60%
    13:00 +15°C° 0 mm 2 m/s 768 mmHg 57%
    14:00 +15°C° 0 mm 2 m/s 767 mmHg 56%
    15:00 +15°C° 0 mm 2 m/s 767 mmHg 56%
    16:00 +15°C° 0 mm 1 m/s 767 mmHg 55%
    17:00 +14°C° 0 mm 1 m/s 767 mmHg 61%
    18:00 +13°C° 0 mm 1 m/s 767 mmHg 66%
    19:00 +11°C° 0 mm 1 m/s 768 mmHg 72%
    20:00 +11°C° 0 mm 1 m/s 768 mmHg 73%
    21:00 +11°C° 0 mm 1 m/s 768 mmHg 75%
    22:00 +10°C° 0 mm 1 m/s 768 mmHg 76%
    23:00 +10°C° 0 mm 1 m/s 768 mmHg 78%

    21 Septembre, Samedi

    Heure Température Précipitation Vent Pression Humidité
    00:00 +10°C° 0 mm 1 m/s 768 mmHg 79%
    01:00 +9°C° 0 mm 1 m/s 768 mmHg 81%
    02:00 +9°C° 0 mm 1 m/s 767 mmHg 81%
    03:00 +9°C° 0 mm 1 m/s 767 mmHg 82%
    04:00 +9°C° 0 mm 1 m/s 767 mmHg 83%
    05:00 +9°C° 0 mm 1 m/s 767 mmHg 82%
    06:00 +9°C° 0 mm 1 m/s 767 mmHg 80%
    07:00 +10°C° 0 mm 1 m/s 767 mmHg 78%
    08:00 +12°C° 0 mm 1 m/s 767 mmHg 70%
    09:00 +14°C° 0 mm 1 m/s 767 mmHg 62%
    10:00 +16°C° 0 mm 1 m/s 767 mmHg 55%
    11:00 +18°C° 0 mm 1 m/s 767 mmHg 51%
    12:00 +19°C° 0 mm 1 m/s 767 mmHg 48%
    13:00 +21°C° 0 mm 1 m/s 766 mmHg 44%
    14:00 +21°C° 0 mm 1 m/s 766 mmHg 44%
    15:00 +21°C° 0 mm 1 m/s 766 mmHg 44%
    16:00 +21°C° 0 mm 1 m/s 765 mmHg 44%
    17:00 +19°C° 0 mm 1 m/s 765 mmHg 50%
    18:00 +16°C° 0 mm 1 m/s 765 mmHg 55%
    19:00 +15°C° 0 mm 1 m/s 765 mmHg 60%
    20:00 +14°C° 0 mm 1 m/s 765 mmHg 62%
    21:00 +14°C° 0 mm 2 m/s 765 mmHg 63%
    22:00 +13°C° 0 mm 2 m/s 766 mmHg 65%
    23:00 +13°C° 0 mm 2 m/s 766 mmHg 66%
    Voir plus